Temp
56 56 56 57 56 56 55 55 54 54 55 55 55 54 55 55 55 54 54 54 54 54 53 53 53 53 53 53 53 53 53 53 53 52 52 52 52 51 51 51 50 50 51 51 52 52 53 53 53 53 53 53 53 53 52 51 52 52 53 53 53 53 53 53 53 53 53 53 53
55 55 55 55 55 54 54 53 52 52 52 53 54 54 54 54 54 53 53 53 53 52 52 52 52 52 52 52 52 53 53 53 53 52 52 52 51 51 51 51 50 50 50 50 51 52 52 52 53 53 53 53 53 53 52 51 51 52 53 53 53 53 53 53 53 53 53 53 54
54 54 54 55 54 53 53 52 51 51 51 51 52 52 52 53 53 52 52 52 51 51 51 51 51 51 52 52 52 52 52 53 52 53 53 52 52 51 51 51 51 50 50 50 50 51 51 52 52 52 53 53 53 53 52 52 52 52 52 53 53 53 53 53 53 53 53 54 54
52 53 53 54 54 53 53 52 51 51 51 50 51 51 51 51 51 51 51 51 50 50 51 51 51 51 51 51 51 52 52 52 52 52 52 52 52 51 51 51 51 51 50 50 50 50 50 51 52 52 52 52 52 52 52 52 52 52 52 52 53 53 53 53 53 53 53 53 53
51 52 53 53 53 53 53 52 51 51 50 49 49 49 49 49 49 50 50 50 50 50 50 51 50 50 50 51 51 51 51 51 51 52 52 52 51 51 51 52 52 51 51 50 50 49 50 51 52 52 52 52 52 51 51 50 51 51 52 52 52 52 52 53 53 53 53 53 53
50 51 51 51 51 51 51 51 50 50 50 50 50 50 49 49 50 50 50 51 51 51 50 49 49 49 50 51 52 52 51 51 51 52 52 51 51 51 51 51 51 51 51 51 50 49 49 51 52 53 52 52 51 51 51 50 51 51 51 52 52 52 52 52 52 52 52 52 52
49 49 49 49 49 49 49 49 49 49 50 51 51 51 51 50 51 51 51 51 51 50 50 49 49 50 51 51 52 52 52 51 51 51 51 52 51 51 51 51 51 51 51 51 51 50 50 50 52 52 52 52 52 51 50 49 50 51 51 52 52 51 51 50 50 51 51 51 51
48 48 48 48 48 48 48 48 49 50 51 51 51 51 51 51 51 51 51 51 51 50 50 49 50 51 51 52 51 51 51 51 51 51 51 51 51 51 50 50 50 50 50 50 50 51 51 51 51 51 51 51 51 51 50 48 48 49 50 51 51 51 50 49 49 49 50 50 49
47 47 47 47 48 48 49 50 50 51 51 51 51 51 51 51 51 51 51 51 50 50 49 49 50 50 51 51 51 51 51 50 50 50 50 50 50 50 50 50 50 50 50 50 50 50 50 51 51 50 50 50 50 49 48 47 47 48 49 50 51 51 51 50 50 50 50 49 49
47 47 47 48 48 49 50 50 51 51 51 50 50 50 50 50 50 51 51 50 50 49 49 49 50 50 51 51 50 50 50 49 49 49 49 49 49 49 49 49 49 49 49 49 49 49 50 50 50 50 49 49 48 48 47 46 47 47 48 50 49 49 50 50 50 50 49 49 48
47 47 48 48 48 49 49 50 50 50 50 50 50 50 50 49 50 50 50 49 49 49 49 49 50 50 50 50 49 49 49 49 49 49 48 48 48 48 48 48 48 48 48 48 48 49 49 50 49 49 49 49 48 48 47 46 46 47 47 48 48 48 49 50 50 49 49 49 48
48 48 48 48 48 49 49 49 49 49 49 49 49 49 49 49 49 49 49 49 49 49 49 49 50 50 50 49 49 49 48 48 48 48 48 48 48 48 48 48 48 48 48 48 48 48 48 49 49 49 49 49 49 48 47 46 46 46 47 47 48 48 48 48 48 48 48 48 48
47 47 48 48 48 49 49 49 49 49 49 48 48 48 49 49 49 49 49 49 49 49 48 49 49 49 49 49 49 48 48 48 48 48 48 48 48 47 47 47 47 48 48 48 47 48 48 48 48 48 48 48 49 49 48 46 46 46 46 47 47 47 48 47 48 48 48 48 47
47 47 47 48 48 49 49 49 49 49 48 48 48 48 48 48 49 49 49 49 49 48 48 48 49 49 49 49 48 48 48 48 48 48 48 47 47 47 47 47 47 47 48 48 47 47 47 47 47 47 47 48 48 48 48 47 47 46 46 46 46 46 46 47 47 47 47 47 47
47 47 47 48 48 48 49 48 48 48 48 48 48 48 48 48 48 49 49 49 48 49 49 49 49 48 48 48 48 48 48 48 48 48 48 47 47 47 47 47 47 47 47 47 47 47 47 47 47 47 47 47 47 47 48 47 47 47 46 46 46 46 46 46 46 46 46 46 46
47 47 47 48 48 48 48 48 48 48 48 48 48 48 48 49 49 49 49 49 49 49 49 49 49 48 48 48 48 48 48 48 48 48 48 47 47 47 47 47 47 47 47 47 47 47 47 47 47 47 46 47 47 47 47 48 48 48 47 47 46 46 46 46 46 46 46 46 46
47 47 48 48 48 48 48 48 48 48 48 48 48 48 49 49 49 49 48 48 49 49 48 48 49 48 48 48 48 48 49 48 48 48 48 47 47 47 46 46 46 46 46 47 47 47 47 47 47 47 47 47 47 48 48 48 48 48 48 48 48 47 47 46 46 46 46 45 45
47 47 48 48 48 48 47 47 47 46 46 46 47 47 48 48 48 48 48 48 48 48 47 47 48 48 48 47 48 48 49 48 48 48 47 47 46 46 46 46 46 46 46 47 47 47 47 47 48 48 47 48 48 48 48 48 48 48 48 48 48 48 48 47 47 46 46 45 45
47 48 48 48 47 47 46 46 45 45 45 45 45 45 46 46 46 46 46 47 47 47 47 47 47 47 48 47 47 47 48 48 47 47 47 46 46 46 46 46 46 46 46 47 47 47 47 48 48 48 48 48 48 48 48 48 48 48 48 48 48 48 48 47 47 47 46 45 45
47 47 47 47 46 46 45 45 45 44 44 44 44 44 44 44 45 45 45 45 46 47 47 47 47 47 47 47 47 46 46 46 46 46 46 46 46 46 46 46 46 46 46 47 47 47 47 47 48 48 48 48 48 48 48 48 48 48 48 48 48 48 48 47 47 47 46 46 45
47 47 47 46 46 45 45 45 44 44 44 43 43 43 44 44 44 45 45 45 46 46 46 46 46 47 47 47 46 46 45 46 46 46 45 45 45 45 45 45 45 45 46 47 47 47 47 47 48 48 48 48 48 48 48 48 48 48 48 48 48 48 48 47 47 47 46 46 45
46 46 46 45 45 45 44 44 44 44 43 43 43 43 44 44 44 44 44 45 46 46 46 46 46 46 47 47 46 45 44 44 45 45 45 45 44 44 44 44 44 44 45 46 46 46 47 47 48 48 48 49 48 48 48 48 48 48 48 48 48 48 48 48 47 47 46 46 46
46 45 45 45 45 44 44 43 43 43 44 44 44 44 44 43 43 43 44 45 45 45 45 45 45 45 46 46 45 44 44 43 44 44 44 44 44 44 44 44 44 44 45 45 46 46 47 48 48 49 49 49 49 48 48 48 48 48 48 48 48 48 48 48 48 47 47 47 46
44 44 44 44 44 44 43 43 43 43 44 44 44 44 43 43 42 43 43 44 44 44 44 44 44 44 44 44 44 44 44 44 44 44 44 44 44 44 43 44 44 45 45 45 45 46 46 48 49 49 50 50 49 49 49 49 48 48 48 48 48 48 48 48 48 48 47 47 47
44 44 44 43 43 43 43 43 44 44 44 44 44 44 43 42 42 43 43 44 43 43 43 43 43 43 43 43 43 44 44 44 44 44 44 44 44 44 44 44 45 45 45 45 43 43 45 46 48 49 50 50 50 49 49 49 48 48 48 47 47 47 47 47 48 48 48 48 47
43 43 43 43 43 44 44 44 44 44 44 43 43 43 43 43 43 43 43 43 43 43 43 43 42 43 43 43 43 43 43 43 43 43 44 44 44 44 45 45 45 45 44 44 43 43 44 45 46 47 48 49 49 49 49 49 48 48 47 47 47 46 46 47 47 48 48 48 48
43 43 43 43 44 44 45 45 44 44 43 43 43 43 43 43 43 43 43 43 43 43 43 43 43 43 43 44 43 43 43 43 43 43 43 43 43 44 45 46 45 45 44 42 42 43 44 45 45 46 47 48 48 48 48 48 48 47 47 46 46 46 46 46 47 47 47 48 47
43 43 43 44 44 44 45 44 44 44 43 43 43 43 43 43 43 43 43 43 43 43 43 43 43 43 44 44 44 43 43 43 43 42 42 42 43 43 44 45 45 44 43 42 42 43 43 44 45 45 46 46 47 47 47 47 47 47 47 47 47 46 46 46 46 47 47 47 47
44 44 44 44 44 44 44 44 44 44 43 42 42 42 42 42 42 43 43 43 43 44 44 43 43 43 44 44 43 43 43 42 42 42 42 42 43 43 44 45 45 44 43 41 42 42 43 44 44 45 45 45 47 47 47 47 47 47 47 47 47 46 46 46 46 46 46 46 47
44 44 44 45 45 44 44 44 44 43 43 42 41 41 42 41 42 42 43 44 44 44 43 43 43 43 43 43 43 43 43 43 42 42 42 42 42 43 44 44 44 43 42 41 42 42 43 44 44 44 45 45 46 46 47 47 47 47 46 46 46 46 46 46 46 46 46 46 46
44 44 45 45 45 45 44 44 43 42 41 40 40 40 41 41 42 42 42 43 43 42 42 41 42 42 42 43 42 42 43 42 42 42 42 42 42 43 43 44 43 43 42 41 42 42 43 43 44 44 44 44 45 46 47 47 47 46 46 46 45 45 45 45 45 45 45 45 45
43 44 45 45 45 44 44 43 42 40 39 38 39 39 40 41 41 41 41 40 40 40 41 41 42 42 42 43 43 43 42 42 42 42 42 42 42 42 42 43 43 43 42 42 42 42 43 43 43 44 44 44 45 46 46 47 47 46 46 45 45 45 45 45 45 45 45 45 45
43 44 44 45 44 43 42 41 40 38 37 37 38 38 39 39 39 39 38 38 39 40 41 42 42 43 43 44 44 43 43 43 42 42 42 42 42 42 42 42 43 43 42 42 42 42 42 43 43 43 44 44 45 46 46 46 46 46 46 45 45 45 45 45 44 45 45 45 45
43 43 44 44 43 42 40 39 37 36 36 36 37 37 37 38 38 38 39 39 40 41 41 42 42 43 43 43 43 43 43 43 43 42 42 42 41 41 41 42 42 42 42 41 41 42 42 42 43 43 43 43 45 46 46 46 46 45 45 45 45 45 45 45 45 45 45 45 45
42 43 43 43 41 40 38 36 36 36 36 37 37 37 37 38 39 40 40 41 41 41 42 42 42 42 42 42 42 42 42 42 42 42 42 41 41 41 41 42 42 42 42 42 41 41 42 42 42 42 43 43 45 45 46 46 45 45 45 45 44 45 45 45 45 45 45 45 45
42 42 42 42 40 39 38 36 36 37 38 39 39 39 39 40 40 40 41 41 41 41 42 42 41 41 41 42 42 42 42 42 42 42 41 41 41 40 41 41 42 42 42 42 41 41 41 41 42 42 43 44 45 45 46 45 45 45 44 44 44 44 45 45 45 45 45 45 45
41 41 42 42 40 40 39 38 38 39 40 40 41 40 40 40 40 40 40 41 41 41 42 42 41 41 41 42 42 42 42 42 41 41 41 41 40 40 40 41 42 42 42 42 41 41 41 41 42 42 42 43 44 45 45 45 45 45 44 44 44 45 45 45 45 45 45 45 44
40 41 42 42 41 40 39 39 39 40 41 41 41 41 40 40 40 40 40 40 41 41 41 41 41 41 41 41 41 41 41 41 41 40 40 40 40 40 40 40 41 42 42 42 41 41 41 41 42 42 42 43 44 44 45 45 45 44 44 44 44 45 45 45 45 45 45 44 44
40 40 41 41 40 39 39 39 40 41 41 41 41 40 40 40 40 40 40 40 41 41 41 41 41 41 41 41 41 40 41 41 40 40 40 40 40 40 40 40 40 41 42 42 41 41 41 41 41 41 41 42 43 44 44 44 44 44 44 44 44 44 45 45 45 45 44 44 43
39 39 40 40 40 39 39 40 40 41 41 41 41 40 40 40 40 40 40 40 40 40 40 40 40 41 40 40 40 40 40 41 41 40 40 40 40 39 39 39 40 41 42 41 41 41 41 41 41 41 41 42 43 44 44 44 43 43 43 43 43 44 44 44 44 44 44 44 43
39 39 39 39 39 39 39 40 40 40 40 40 40 40 40 40 40 40 40 39 39 39 39 39 40 40 40 39 39 39 40 40 41 41 41 40 40 39 39 39 40 40 41 41 41 40 40 40 40 40 41 42 43 43 44 44 43 43 43 43 43 43 43 43 44 44 44 44 44
MSLP
1020.50 1020.62 1020.70 1020.82 1020.90 1021.06 1021.18 1021.34 1021.50 1021.58 1021.66 1021.74 1021.86 1021.98 1022.10 1022.10 1022.18 1022.34 1022.50 1022.58 1022.66 1022.78 1022.90 1022.98 1023.10 1023.14 1023.26 1023.34 1023.38 1023.38 1023.42 1023.46 1023.50 1023.54 1023.54 1023.54 1023.54 1023.58 1023.66 1023.66 1023.70 1023.74 1023.66 1023.62 1023.58 1023.54 1023.54 1023.46 1023.42 1023.38 1023.30 1023.26 1023.22 1023.14 1023.14 1023.14 1023.10 1022.98 1022.86 1022.78 1022.70 1022.62 1022.54 1022.42 1022.30 1022.22 1022.14 1022.06 1021.98
1020.54 1020.62 1020.70 1020.86 1020.98 1021.10 1021.26 1021.42 1021.54 1021.66 1021.78 1021.82 1021.94 1022.02 1022.10 1022.18 1022.26 1022.38 1022.50 1022.62 1022.74 1022.86 1022.98 1023.10 1023.14 1023.22 1023.26 1023.34 1023.38 1023.38 1023.38 1023.42 1023.46 1023.46 1023.50 1023.50 1023.54 1023.62 1023.62 1023.62 1023.66 1023.70 1023.70 1023.66 1023.62 1023.54 1023.54 1023.50 1023.42 1023.34 1023.30 1023.26 1023.22 1023.14 1023.14 1023.22 1023.18 1023.06 1022.90 1022.82 1022.74 1022.66 1022.58 1022.46 1022.38 1022.30 1022.22 1022.10 1022.02
1020.54 1020.66 1020.74 1020.82 1020.98 1021.10 1021.26 1021.38 1021.54 1021.70 1021.82 1021.94 1022.06 1022.10 1022.18 1022.26 1022.30 1022.38 1022.54 1022.70 1022.82 1022.94 1023.02 1023.10 1023.22 1023.26 1023.26 1023.30 1023.38 1023.42 1023.42 1023.42 1023.42 1023.42 1023.38 1023.42 1023.54 1023.54 1023.58 1023.58 1023.62 1023.66 1023.66 1023.66 1023.66 1023.62 1023.54 1023.54 1023.46 1023.38 1023.30 1023.26 1023.22 1023.18 1023.14 1023.18 1023.14 1023.06 1022.94 1022.86 1022.82 1022.70 1022.62 1022.54 1022.42 1022.34 1022.26 1022.14 1022.06
1020.54 1020.66 1020.74 1020.82 1020.94 1021.06 1021.22 1021.38 1021.54 1021.66 1021.82 1021.98 1022.10 1022.18 1022.26 1022.38 1022.42 1022.54 1022.62 1022.74 1022.82 1022.94 1023.02 1023.10 1023.14 1023.22 1023.26 1023.30 1023.34 1023.38 1023.46 1023.46 1023.42 1023.38 1023.38 1023.38 1023.46 1023.50 1023.54 1023.54 1023.54 1023.54 1023.58 1023.62 1023.62 1023.62 1023.58 1023.54 1023.46 1023.38 1023.34 1023.26 1023.26 1023.22 1023.22 1023.22 1023.18 1023.10 1022.98 1022.94 1022.86 1022.78 1022.70 1022.58 1022.54 1022.38 1022.30 1022.22 1022.10
1020.62 1020.70 1020.74 1020.82 1020.98 1021.10 1021.26 1021.38 1021.54 1021.70 1021.86 1021.98 1022.10 1022.26 1022.34 1022.46 1022.54 1022.58 1022.66 1022.70 1022.82 1022.94 1023.02 1023.10 1023.14 1023.22 1023.26 1023.26 1023.26 1023.34 1023.38 1023.46 1023.42 1023.38 1023.34 1023.38 1023.38 1023.42 1023.42 1023.42 1023.38 1023.42 1023.50 1023.54 1023.54 1023.54 1023.54 1023.46 1023.38 1023.38 1023.34 1023.26 1023.26 1023.26 1023.26 1023.30 1023.22 1023.10 1023.02 1022.98 1022.94 1022.82 1022.74 1022.66 1022.58 1022.50 1022.38 1022.30 1022.18
1020.62 1020.70 1020.82 1020.94 1021.06 1021.18 1021.34 1021.50 1021.62 1021.74 1021.90 1021.98 1022.02 1022.10 1022.26 1022.38 1022.46 1022.54 1022.54 1022.62 1022.74 1022.90 1023.06 1023.14 1023.18 1023.18 1023.18 1023.14 1023.18 1023.22 1023.30 1023.38 1023.38 1023.34 1023.30 1023.30 1023.34 1023.34 1023.34 1023.34 1023.38 1023.38 1023.38 1023.42 1023.50 1023.54 1023.54 1023.42 1023.30 1023.26 1023.26 1023.26 1023.34 1023.34 1023.34 1023.34 1023.26 1023.14 1023.02 1022.94 1022.90 1022.86 1022.82 1022.74 1022.70 1022.58 1022.50 1022.38 1022.26
1020.62 1020.78 1020.90 1021.02 1021.18 1021.30 1021.42 1021.54 1021.66 1021.78 1021.82 1021.86 1021.90 1021.94 1022.06 1022.26 1022.34 1022.38 1022.46 1022.54 1022.70 1022.90 1023.10 1023.18 1023.18 1023.10 1022.98 1022.98 1022.98 1023.10 1023.18 1023.26 1023.30 1023.30 1023.26 1023.26 1023.26 1023.26 1023.26 1023.26 1023.30 1023.30 1023.30 1023.34 1023.38 1023.38 1023.38 1023.38 1023.34 1023.26 1023.26 1023.30 1023.26 1023.34 1023.38 1023.38 1023.26 1023.18 1023.06 1022.94 1022.94 1022.94 1022.94 1022.86 1022.82 1022.70 1022.58 1022.42 1022.34
1020.66 1020.82 1020.98 1021.10 1021.26 1021.34 1021.42 1021.54 1021.62 1021.66 1021.70 1021.74 1021.74 1021.82 1021.98 1022.10 1022.26 1022.30 1022.38 1022.54 1022.70 1022.90 1023.10 1023.22 1023.14 1023.02 1022.86 1022.82 1022.90 1022.98 1023.10 1023.22 1023.26 1023.26 1023.26 1023.22 1023.18 1023.18 1023.18 1023.22 1023.22 1023.22 1023.26 1023.30 1023.30 1023.30 1023.30 1023.34 1023.30 1023.30 1023.30 1023.34 1023.30 1023.34 1023.38 1023.42 1023.34 1023.22 1023.06 1022.94 1022.94 1022.98 1022.98 1022.94 1022.90 1022.78 1022.66 1022.50 1022.38
1020.70 1020.82 1020.98 1021.10 1021.26 1021.38 1021.42 1021.50 1021.50 1021.54 1021.58 1021.66 1021.66 1021.78 1021.90 1022.06 1022.18 1022.26 1022.34 1022.50 1022.70 1022.90 1023.10 1023.26 1023.22 1023.06 1022.90 1022.78 1022.82 1022.94 1023.06 1023.18 1023.26 1023.26 1023.26 1023.22 1023.18 1023.18 1023.14 1023.14 1023.14 1023.18 1023.22 1023.26 1023.26 1023.26 1023.26 1023.26 1023.30 1023.34 1023.38 1023.38 1023.38 1023.38 1023.46 1023.42 1023.34 1023.26 1023.10 1022.98 1022.94 1022.94 1022.90 1022.90 1022.82 1022.74 1022.66 1022.54 1022.42
1020.58 1020.82 1020.98 1021.10 1021.26 1021.34 1021.38 1021.42 1021.46 1021.50 1021.54 1021.58 1021.66 1021.74 1021.86 1021.98 1022.10 1022.22 1022.30 1022.46 1022.66 1022.86 1023.06 1023.18 1023.18 1023.10 1022.90 1022.78 1022.82 1022.94 1023.06 1023.18 1023.26 1023.26 1023.26 1023.26 1023.26 1023.22 1023.18 1023.14 1023.10 1023.10 1023.14 1023.22 1023.26 1023.26 1023.26 1023.26 1023.26 1023.30 1023.34 1023.38 1023.42 1023.46 1023.46 1023.42 1023.34 1023.26 1023.18 1023.02 1023.02 1022.94 1022.86 1022.82 1022.70 1022.70 1022.62 1022.54 1022.42
1020.50 1020.70 1020.86 1021.02 1021.18 1021.30 1021.38 1021.42 1021.50 1021.54 1021.58 1021.58 1021.66 1021.78 1021.90 1022.02 1022.10 1022.26 1022.38 1022.50 1022.58 1022.74 1022.94 1023.06 1023.10 1023.02 1022.90 1022.82 1022.82 1022.98 1023.06 1023.14 1023.22 1023.26 1023.30 1023.30 1023.30 1023.26 1023.26 1023.22 1023.18 1023.14 1023.14 1023.18 1023.26 1023.26 1023.26 1023.26 1023.26 1023.26 1023.30 1023.34 1023.38 1023.38 1023.42 1023.38 1023.34 1023.26 1023.18 1023.10 1023.06 1022.98 1022.82 1022.74 1022.70 1022.66 1022.54 1022.50 1022.42
1020.42 1020.66 1020.82 1020.98 1021.18 1021.30 1021.38 1021.42 1021.54 1021.58 1021.62 1021.62 1021.66 1021.82 1021.94 1022.10 1022.18 1022.30 1022.38 1022.42 1022.50 1022.70 1022.86 1022.98 1022.98 1022.94 1022.82 1022.82 1022.90 1022.98 1023.10 1023.14 1023.18 1023.26 1023.30 1023.38 1023.42 1023.38 1023.38 1023.30 1023.26 1023.18 1023.14 1023.18 1023.26 1023.26 1023.22 1023.22 1023.26 1023.26 1023.26 1023.30 1023.30 1023.30 1023.34 1023.38 1023.30 1023.22 1023.14 1023.10 1023.02 1022.90 1022.82 1022.74 1022.70 1022.66 1022.54 1022.50 1022.38
1020.38 1020.62 1020.82 1021.02 1021.18 1021.26 1021.38 1021.46 1021.54 1021.58 1021.62 1021.66 1021.74 1021.82 1021.98 1022.14 1022.26 1022.30 1022.34 1022.38 1022.50 1022.70 1022.86 1022.98 1022.98 1022.90 1022.82 1022.82 1022.90 1022.98 1023.10 1023.10 1023.14 1023.18 1023.26 1023.38 1023.50 1023.54 1023.50 1023.38 1023.30 1023.22 1023.18 1023.18 1023.22 1023.22 1023.22 1023.22 1023.26 1023.22 1023.22 1023.26 1023.22 1023.26 1023.26 1023.26 1023.26 1023.22 1023.10 1023.06 1022.98 1022.86 1022.82 1022.74 1022.70 1022.66 1022.54 1022.50 1022.38
1020.38 1020.62 1020.82 1020.98 1021.10 1021.22 1021.34 1021.46 1021.54 1021.62 1021.66 1021.70 1021.82 1021.90 1022.06 1022.22 1022.30 1022.34 1022.34 1022.38 1022.54 1022.70 1022.86 1022.94 1022.94 1022.86 1022.82 1022.86 1022.94 1022.98 1023.02 1023.06 1023.06 1023.10 1023.26 1023.38 1023.54 1023.58 1023.54 1023.50 1023.38 1023.30 1023.22 1023.18 1023.22 1023.22 1023.22 1023.18 1023.22 1023.22 1023.22 1023.22 1023.18 1023.22 1023.26 1023.22 1023.18 1023.14 1023.10 1023.02 1022.94 1022.86 1022.82 1022.74 1022.70 1022.62 1022.54 1022.46 1022.38
1020.42 1020.62 1020.78 1020.94 1021.02 1021.14 1021.26 1021.42 1021.54 1021.62 1021.66 1021.78 1021.86 1021.98 1022.10 1022.26 1022.34 1022.38 1022.38 1022.46 1022.58 1022.70 1022.82 1022.86 1022.90 1022.90 1022.90 1022.94 1022.98 1023.02 1023.02 1022.98 1022.94 1022.98 1023.18 1023.38 1023.54 1023.62 1023.66 1023.58 1023.50 1023.38 1023.26 1023.18 1023.18 1023.18 1023.18 1023.18 1023.22 1023.18 1023.18 1023.18 1023.18 1023.18 1023.18 1023.14 1023.10 1023.10 1023.06 1023.02 1022.98 1022.90 1022.82 1022.78 1022.70 1022.62 1022.54 1022.46 1022.38
1020.38 1020.54 1020.70 1020.82 1020.94 1021.06 1021.22 1021.38 1021.50 1021.62 1021.70 1021.82 1021.90 1022.02 1022.10 1022.26 1022.34 1022.38 1022.42 1022.50 1022.62 1022.70 1022.74 1022.82 1022.82 1022.86 1022.94 1022.98 1023.06 1023.06 1023.02 1022.94 1022.82 1022.86 1023.02 1023.26 1023.46 1023.62 1023.70 1023.66 1023.58 1023.50 1023.38 1023.22 1023.14 1023.10 1023.10 1023.14 1023.18 1023.18 1023.18 1023.18 1023.14 1023.10 1023.10 1023.10 1023.10 1023.02 1022.98 1022.98 1022.94 1022.90 1022.82 1022.78 1022.70 1022.66 1022.58 1022.54 1022.38
1020.34 1020.50 1020.62 1020.70 1020.82 1020.98 1021.10 1021.30 1021.46 1021.58 1021.70 1021.82 1021.94 1022.02 1022.10 1022.22 1022.30 1022.38 1022.42 1022.50 1022.58 1022.66 1022.74 1022.78 1022.82 1022.82 1022.90 1022.98 1023.06 1023.10 1023.02 1022.94 1022.82 1022.82 1022.94 1023.18 1023.38 1023.58 1023.70 1023.74 1023.70 1023.62 1023.46 1023.26 1023.14 1023.10 1023.10 1023.10 1023.10 1023.14 1023.14 1023.14 1023.10 1023.10 1023.10 1023.10 1023.02 1022.98 1022.90 1022.86 1022.86 1022.82 1022.82 1022.78 1022.74 1022.70 1022.58 1022.54 1022.42
1020.30 1020.46 1020.58 1020.70 1020.78 1020.90 1021.06 1021.22 1021.38 1021.54 1021.70 1021.82 1021.98 1022.06 1022.14 1022.26 1022.30 1022.38 1022.50 1022.54 1022.58 1022.62 1022.70 1022.78 1022.82 1022.82 1022.90 1022.98 1023.02 1023.02 1022.98 1022.94 1022.82 1022.82 1022.90 1023.14 1023.38 1023.54 1023.70 1023.78 1023.78 1023.70 1023.54 1023.38 1023.22 1023.10 1023.06 1023.02 1023.02 1023.06 1023.06 1023.06 1023.06 1023.02 1023.02 1023.02 1022.98 1022.94 1022.86 1022.82 1022.78 1022.74 1022.74 1022.70 1022.70 1022.66 1022.58 1022.54 1022.42
1020.26 1020.42 1020.54 1020.66 1020.78 1020.94 1021.10 1021.26 1021.38 1021.54 1021.70 1021.86 1022.02 1022.10 1022.22 1022.34 1022.38 1022.50 1022.54 1022.62 1022.62 1022.66 1022.70 1022.70 1022.82 1022.82 1022.86 1022.90 1022.98 1022.98 1022.94 1022.90 1022.82 1022.82 1022.90 1023.10 1023.34 1023.54 1023.66 1023.78 1023.78 1023.70 1023.58 1023.42 1023.26 1023.14 1023.02 1022.98 1022.98 1022.98 1022.94 1022.94 1022.94 1022.90 1022.90 1022.90 1022.90 1022.86 1022.82 1022.82 1022.74 1022.70 1022.70 1022.62 1022.58 1022.58 1022.58 1022.50 1022.46
1020.22 1020.38 1020.54 1020.70 1020.82 1020.98 1021.14 1021.26 1021.38 1021.54 1021.70 1021.90 1022.06 1022.18 1022.26 1022.38 1022.50 1022.54 1022.58 1022.62 1022.66 1022.70 1022.70 1022.70 1022.74 1022.82 1022.86 1022.94 1022.98 1022.98 1022.94 1022.86 1022.82 1022.78 1022.82 1022.98 1023.26 1023.50 1023.66 1023.74 1023.74 1023.70 1023.62 1023.46 1023.26 1023.14 1023.02 1022.94 1022.90 1022.86 1022.86 1022.82 1022.82 1022.82 1022.78 1022.78 1022.74 1022.74 1022.70 1022.70 1022.66 1022.62 1022.62 1022.58 1022.54 1022.54 1022.50 1022.46 1022.42
1020.26 1020.42 1020.62 1020.78 1020.94 1021.10 1021.22 1021.38 1021.46 1021.58 1021.70 1021.86 1022.02 1022.14 1022.26 1022.38 1022.50 1022.54 1022.58 1022.66 1022.70 1022.70 1022.70 1022.70 1022.74 1022.78 1022.82 1022.90 1022.94 1022.98 1022.94 1022.86 1022.78 1022.70 1022.74 1022.94 1023.18 1023.46 1023.66 1023.74 1023.74 1023.70 1023.62 1023.46 1023.26 1023.14 1023.02 1022.90 1022.82 1022.82 1022.78 1022.74 1022.70 1022.70 1022.70 1022.66 1022.66 1022.66 1022.62 1022.58 1022.54 1022.54 1022.54 1022.50 1022.46 1022.42 1022.42 1022.38 1022.34
1020.34 1020.54 1020.70 1020.86 1021.06 1021.22 1021.34 1021.50 1021.58 1021.66 1021.78 1021.90 1022.02 1022.14 1022.26 1022.38 1022.46 1022.54 1022.62 1022.66 1022.66 1022.70 1022.70 1022.70 1022.74 1022.78 1022.82 1022.86 1022.94 1022.98 1022.98 1022.90 1022.78 1022.70 1022.70 1022.86 1023.10 1023.38 1023.62 1023.70 1023.74 1023.70 1023.58 1023.46 1023.30 1023.18 1023.02 1022.86 1022.82 1022.74 1022.70 1022.66 1022.62 1022.62 1022.62 1022.58 1022.54 1022.54 1022.50 1022.46 1022.46 1022.42 1022.38 1022.38 1022.38 1022.34 1022.30 1022.26 1022.26
1020.46 1020.70 1020.86 1021.02 1021.18 1021.34 1021.50 1021.58 1021.66 1021.74 1021.82 1021.90 1022.06 1022.14 1022.26 1022.34 1022.42 1022.54 1022.62 1022.62 1022.62 1022.66 1022.70 1022.74 1022.78 1022.82 1022.82 1022.90 1022.94 1022.94 1022.90 1022.86 1022.82 1022.78 1022.74 1022.82 1023.02 1023.26 1023.54 1023.70 1023.70 1023.66 1023.54 1023.42 1023.30 1023.14 1022.98 1022.82 1022.70 1022.62 1022.58 1022.54 1022.54 1022.54 1022.54 1022.50 1022.46 1022.42 1022.38 1022.38 1022.34 1022.30 1022.30 1022.26 1022.22 1022.22 1022.18 1022.10 1022.10
1020.58 1020.78 1020.98 1021.14 1021.30 1021.42 1021.58 1021.70 1021.74 1021.78 1021.82 1021.90 1022.02 1022.10 1022.22 1022.30 1022.42 1022.50 1022.54 1022.54 1022.58 1022.62 1022.70 1022.70 1022.78 1022.86 1022.90 1022.94 1022.94 1022.86 1022.82 1022.82 1022.82 1022.82 1022.86 1022.90 1022.98 1023.18 1023.38 1023.54 1023.62 1023.58 1023.50 1023.38 1023.26 1023.14 1022.98 1022.74 1022.58 1022.50 1022.42 1022.38 1022.42 1022.38 1022.38 1022.38 1022.38 1022.38 1022.30 1022.30 1022.26 1022.26 1022.18 1022.14 1022.10 1022.10 1022.02 1021.98 1021.94
1020.70 1020.90 1021.06 1021.26 1021.38 1021.50 1021.58 1021.66 1021.70 1021.78 1021.82 1021.94 1021.98 1022.10 1022.14 1022.26 1022.34 1022.38 1022.42 1022.46 1022.54 1022.62 1022.70 1022.70 1022.78 1022.86 1022.90 1022.90 1022.86 1022.82 1022.82 1022.82 1022.82 1022.86 1022.86 1022.90 1022.98 1023.10 1023.26 1023.38 1023.46 1023.46 1023.42 1023.38 1023.38 1023.26 1023.06 1022.82 1022.66 1022.50 1022.38 1022.34 1022.34 1022.30 1022.30 1022.30 1022.30 1022.30 1022.26 1022.22 1022.22 1022.14 1022.10 1022.06 1021.98 1021.94 1021.86 1021.86 1021.82
1020.78 1020.98 1021.14 1021.26 1021.42 1021.50 1021.54 1021.62 1021.66 1021.74 1021.82 1021.94 1021.98 1022.10 1022.14 1022.22 1022.26 1022.30 1022.34 1022.38 1022.50 1022.58 1022.66 1022.70 1022.78 1022.82 1022.82 1022.82 1022.78 1022.82 1022.82 1022.90 1022.94 1022.94 1022.90 1022.90 1022.94 1023.02 1023.14 1023.26 1023.34 1023.38 1023.38 1023.38 1023.34 1023.22 1023.06 1022.86 1022.74 1022.62 1022.50 1022.38 1022.30 1022.26 1022.26 1022.18 1022.18 1022.22 1022.22 1022.18 1022.18 1022.10 1022.02 1021.94 1021.86 1021.82 1021.78 1021.74 1021.70
1020.82 1020.98 1021.10 1021.26 1021.38 1021.46 1021.54 1021.58 1021.66 1021.82 1021.90 1021.98 1022.02 1022.06 1022.10 1022.14 1022.22 1022.26 1022.34 1022.38 1022.46 1022.54 1022.62 1022.70 1022.74 1022.74 1022.74 1022.70 1022.70 1022.74 1022.78 1022.86 1022.98 1022.98 1022.98 1022.98 1022.94 1022.98 1023.06 1023.14 1023.26 1023.34 1023.34 1023.34 1023.26 1023.14 1022.98 1022.82 1022.70 1022.66 1022.54 1022.38 1022.34 1022.26 1022.18 1022.10 1022.14 1022.14 1022.10 1022.10 1022.10 1022.02 1021.98 1021.86 1021.82 1021.70 1021.66 1021.62 1021.62
1020.78 1020.94 1021.10 1021.22 1021.30 1021.38 1021.50 1021.62 1021.66 1021.78 1021.86 1021.94 1021.98 1022.06 1022.10 1022.14 1022.18 1022.22 1022.26 1022.34 1022.38 1022.50 1022.58 1022.66 1022.70 1022.70 1022.70 1022.66 1022.70 1022.70 1022.78 1022.82 1022.94 1022.98 1022.98 1022.98 1022.98 1022.98 1023.10 1023.14 1023.22 1023.26 1023.26 1023.26 1023.22 1023.06 1022.94 1022.78 1022.70 1022.62 1022.54 1022.46 1022.34 1022.26 1022.22 1022.14 1022.10 1022.06 1022.02 1021.98 1021.98 1021.94 1021.90 1021.82 1021.74 1021.66 1021.58 1021.54 1021.50
1020.70 1020.86 1020.98 1021.10 1021.26 1021.38 1021.50 1021.58 1021.66 1021.78 1021.86 1021.98 1022.02 1022.10 1022.10 1022.14 1022.18 1022.22 1022.26 1022.30 1022.38 1022.42 1022.50 1022.54 1022.66 1022.66 1022.62 1022.62 1022.66 1022.74 1022.82 1022.82 1022.90 1022.94 1022.94 1022.94 1022.98 1022.98 1023.06 1023.10 1023.10 1023.14 1023.14 1023.14 1023.06 1022.98 1022.82 1022.70 1022.62 1022.54 1022.54 1022.50 1022.38 1022.26 1022.14 1022.06 1022.02 1021.98 1021.98 1021.90 1021.86 1021.86 1021.82 1021.78 1021.70 1021.66 1021.54 1021.46 1021.38
1020.70 1020.82 1020.94 1021.06 1021.18 1021.30 1021.42 1021.54 1021.66 1021.78 1021.86 1021.98 1022.10 1022.10 1022.10 1022.14 1022.18 1022.22 1022.22 1022.26 1022.30 1022.38 1022.46 1022.54 1022.58 1022.58 1022.54 1022.62 1022.70 1022.70 1022.70 1022.74 1022.82 1022.86 1022.86 1022.90 1022.94 1022.98 1022.98 1022.98 1022.98 1022.98 1023.02 1023.02 1022.94 1022.82 1022.74 1022.66 1022.58 1022.54 1022.50 1022.42 1022.34 1022.26 1022.10 1021.98 1021.94 1021.90 1021.90 1021.86 1021.82 1021.82 1021.78 1021.70 1021.66 1021.62 1021.54 1021.42 1021.34
1020.70 1020.78 1020.86 1020.98 1021.10 1021.26 1021.38 1021.54 1021.66 1021.78 1021.94 1022.02 1022.10 1022.10 1022.10 1022.14 1022.18 1022.22 1022.26 1022.26 1022.34 1022.46 1022.54 1022.58 1022.54 1022.54 1022.54 1022.58 1022.62 1022.62 1022.66 1022.70 1022.74 1022.82 1022.82 1022.86 1022.86 1022.86 1022.86 1022.86 1022.86 1022.86 1022.90 1022.90 1022.82 1022.74 1022.66 1022.58 1022.54 1022.46 1022.38 1022.38 1022.30 1022.18 1022.06 1021.94 1021.86 1021.82 1021.82 1021.82 1021.74 1021.74 1021.70 1021.66 1021.58 1021.54 1021.42 1021.38 1021.34
1020.66 1020.74 1020.82 1020.94 1021.02 1021.18 1021.38 1021.54 1021.70 1021.82 1021.98 1022.06 1022.10 1022.10 1022.10 1022.14 1022.26 1022.30 1022.38 1022.42 1022.50 1022.54 1022.54 1022.54 1022.50 1022.46 1022.46 1022.50 1022.50 1022.54 1022.58 1022.62 1022.70 1022.70 1022.74 1022.82 1022.82 1022.78 1022.74 1022.74 1022.74 1022.70 1022.70 1022.74 1022.70 1022.62 1022.54 1022.50 1022.42 1022.38 1022.34 1022.30 1022.26 1022.10 1021.98 1021.86 1021.82 1021.78 1021.74 1021.70 1021.66 1021.66 1021.66 1021.62 1021.54 1021.46 1021.38 1021.34 1021.30
1020.62 1020.70 1020.78 1020.86 1020.98 1021.18 1021.38 1021.54 1021.74 1021.86 1021.98 1022.06 1022.10 1022.10 1022.18 1022.26 1022.34 1022.38 1022.46 1022.50 1022.46 1022.42 1022.42 1022.38 1022.38 1022.38 1022.38 1022.38 1022.38 1022.42 1022.46 1022.54 1022.58 1022.66 1022.70 1022.74 1022.70 1022.70 1022.70 1022.66 1022.58 1022.54 1022.58 1022.58 1022.58 1022.54 1022.46 1022.42 1022.34 1022.30 1022.26 1022.26 1022.10 1021.98 1021.86 1021.82 1021.70 1021.66 1021.66 1021.66 1021.62 1021.58 1021.54 1021.54 1021.46 1021.38 1021.34 1021.26 1021.22
1020.58 1020.66 1020.74 1020.82 1020.98 1021.22 1021.38 1021.58 1021.74 1021.86 1021.98 1022.06 1022.10 1022.14 1022.26 1022.26 1022.30 1022.38 1022.42 1022.42 1022.38 1022.38 1022.38 1022.34 1022.34 1022.34 1022.30 1022.30 1022.34 1022.38 1022.42 1022.46 1022.50 1022.54 1022.62 1022.66 1022.70 1022.66 1022.62 1022.58 1022.50 1022.46 1022.50 1022.46 1022.46 1022.42 1022.38 1022.34 1022.26 1022.26 1022.18 1022.14 1022.02 1021.86 1021.74 1021.66 1021.66 1021.58 1021.54 1021.54 1021.50 1021.46 1021.42 1021.38 1021.38 1021.30 1021.26 1021.18 1021.14
1020.54 1020.62 1020.70 1020.82 1020.98 1021.22 1021.38 1021.58 1021.74 1021.82 1021.90 1021.98 1022.06 1022.10 1022.22 1022.26 1022.26 1022.26 1022.30 1022.34 1022.30 1022.30 1022.30 1022.34 1022.34 1022.34 1022.34 1022.38 1022.38 1022.42 1022.42 1022.46 1022.46 1022.54 1022.54 1022.62 1022.62 1022.58 1022.54 1022.46 1022.42 1022.38 1022.38 1022.38 1022.38 1022.38 1022.30 1022.26 1022.22 1022.18 1022.10 1022.02 1021.90 1021.74 1021.62 1021.54 1021.54 1021.50 1021.46 1021.38 1021.38 1021.34 1021.26 1021.26 1021.22 1021.18 1021.10 1021.06 1021.02
1020.50 1020.58 1020.70 1020.82 1020.98 1021.18 1021.38 1021.54 1021.66 1021.74 1021.78 1021.82 1021.90 1021.98 1022.10 1022.14 1022.18 1022.22 1022.22 1022.26 1022.26 1022.26 1022.26 1022.26 1022.30 1022.30 1022.34 1022.38 1022.38 1022.38 1022.42 1022.42 1022.42 1022.46 1022.54 1022.58 1022.58 1022.54 1022.50 1022.38 1022.30 1022.26 1022.26 1022.26 1022.26 1022.26 1022.26 1022.18 1022.14 1022.10 1022.02 1021.90 1021.74 1021.62 1021.50 1021.42 1021.38 1021.34 1021.26 1021.26 1021.22 1021.14 1021.10 1021.06 1021.02 1020.98 1020.98 1020.94 1020.82
1020.54 1020.58 1020.66 1020.78 1020.98 1021.10 1021.26 1021.38 1021.54 1021.58 1021.66 1021.70 1021.82 1021.90 1021.98 1022.06 1022.10 1022.18 1022.26 1022.26 1022.22 1022.22 1022.22 1022.26 1022.26 1022.30 1022.30 1022.34 1022.34 1022.38 1022.38 1022.38 1022.46 1022.50 1022.50 1022.54 1022.54 1022.50 1022.42 1022.30 1022.22 1022.14 1022.10 1022.14 1022.18 1022.18 1022.14 1022.10 1022.06 1022.02 1021.94 1021.82 1021.66 1021.54 1021.38 1021.30 1021.26 1021.18 1021.10 1021.06 1020.98 1020.98 1020.94 1020.86 1020.82 1020.78 1020.74 1020.70 1020.66
1020.54 1020.58 1020.66 1020.74 1020.90 1021.02 1021.18 1021.30 1021.38 1021.46 1021.54 1021.66 1021.78 1021.86 1021.98 1022.02 1022.10 1022.14 1022.22 1022.26 1022.26 1022.22 1022.22 1022.26 1022.26 1022.26 1022.30 1022.34 1022.34 1022.38 1022.42 1022.42 1022.46 1022.50 1022.50 1022.46 1022.42 1022.38 1022.34 1022.26 1022.14 1022.06 1022.02 1022.02 1022.06 1022.06 1022.02 1021.98 1021.94 1021.94 1021.86 1021.74 1021.58 1021.42 1021.30 1021.18 1021.10 1021.02 1020.98 1020.90 1020.82 1020.74 1020.74 1020.70 1020.66 1020.58 1020.54 1020.50 1020.46
1020.54 1020.66 1020.70 1020.74 1020.82 1020.98 1021.14 1021.26 1021.34 1021.38 1021.50 1021.62 1021.74 1021.86 1021.98 1021.98 1022.06 1022.10 1022.22 1022.26 1022.26 1022.26 1022.26 1022.26 1022.26 1022.26 1022.30 1022.38 1022.38 1022.38 1022.38 1022.38 1022.42 1022.46 1022.42 1022.38 1022.34 1022.34 1022.30 1022.18 1022.06 1021.98 1021.90 1021.86 1021.90 1021.90 1021.90 1021.82 1021.82 1021.82 1021.78 1021.66 1021.54 1021.38 1021.22 1021.10 1020.98 1020.90 1020.82 1020.74 1020.66 1020.58 1020.54 1020.50 1020.46 1020.38 1020.30 1020.26 1020.26
1020.62 1020.70 1020.70 1020.78 1020.86 1020.98 1021.10 1021.22 1021.30 1021.38 1021.54 1021.62 1021.74 1021.82 1021.94 1022.02 1022.10 1022.18 1022.26 1022.30 1022.34 1022.34 1022.30 1022.26 1022.26 1022.30 1022.38 1022.38 1022.38 1022.38 1022.34 1022.26 1022.30 1022.30 1022.30 1022.26 1022.26 1022.26 1022.22 1022.10 1021.98 1021.82 1021.78 1021.78 1021.78 1021.78 1021.74 1021.74 1021.70 1021.70 1021.66 1021.58 1021.46 1021.26 1021.10 1020.98 1020.86 1020.74 1020.70 1020.62 1020.50 1020.38 1020.34 1020.26 1020.26 1020.18 1020.10 1019.98 1020.02
1020.70 1020.74 1020.78 1020.82 1020.94 1021.02 1021.10 1021.22 1021.34 1021.46 1021.58 1021.66 1021.74 1021.82 1021.94 1022.06 1022.10 1022.18 1022.26 1022.30 1022.34 1022.38 1022.38 1022.34 1022.34 1022.34 1022.38 1022.38 1022.38 1022.30 1022.26 1022.14 1022.10 1022.10 1022.10 1022.10 1022.10 1022.10 1022.10 1021.98 1021.82 1021.74 1021.66 1021.66 1021.66 1021.66 1021.66 1021.62 1021.58 1021.58 1021.54 1021.50 1021.34 1021.22 1021.06 1020.90 1020.74 1020.58 1020.50 1020.42 1020.38 1020.26 1020.14 1020.06 1020.02 1019.98 1019.90 1019.82 1019.74
Wind_Speed
5 5 5 4 4 4 4 3 3 3 3 4 4 4 3 3 3 3 3 3 2 2 2 2 2 2 3 3 3 3 3 3 3 3 2 2 2 2 2 1 1 1 1 1 1 1 1 1 1 1 1 1 1 1 1 2 2 2 2 2 2 2 2 3 3 3 4 3 3
6 6 5 5 4 4 4 4 3 3 3 3 3 3 3 3 3 3 3 3 2 2 2 2 2 3 3 3 3 3 3 3 3 3 3 3 3 3 2 2 2 2 2 2 2 2 1 2 1 1 1 1 1 1 1 1 2 3 3 3 2 2 2 3 3 3 4 3 3
6 6 6 5 5 5 4 4 4 4 4 3 3 3 3 3 3 3 3 3 3 3 2 2 2 3 3 3 3 3 3 3 3 3 3 3 3 3 3 2 2 2 2 2 2 2 1 1 1 1 1 1 1 1 2 2 2 2 3 3 2 2 2 2 3 3 3 3 3
6 6 6 6 7 7 6 5 6 6 5 4 4 4 3 3 3 3 3 4 4 3 3 3 3 3 3 3 4 4 3 3 3 3 3 4 4 4 3 3 3 3 3 2 2 1 1 1 1 1 1 1 1 2 2 2 2 2 2 2 2 2 2 2 3 3 3 3 3
6 6 6 6 7 7 6 5 6 6 5 4 4 4 3 3 3 3 4 4 4 3 3 3 3 3 4 4 5 5 4 4 3 3 3 4 4 4 3 3 3 3 3 2 2 1 1 1 0 0 1 1 1 1 2 2 3 2 2 2 2 2 2 3 3 3 3 3 3
7 6 6 6 6 6 5 5 6 6 5 5 5 5 5 4 4 4 4 4 4 4 4 4 4 4 5 5 5 5 5 4 4 3 4 4 4 4 4 4 3 3 3 2 2 1 1 1 0 0 0 1 1 1 2 3 3 2 2 2 1 2 2 3 3 3 3 4 4
7 7 7 6 7 6 6 6 6 6 6 5 7 7 7 6 5 5 5 5 5 4 4 4 4 5 6 6 6 5 5 4 4 4 4 4 4 4 4 4 3 3 3 2 2 2 1 1 1 1 1 1 1 1 2 3 3 3 2 2 2 2 2 3 3 3 4 5 5
7 7 7 7 7 7 7 8 7 6 6 5 6 7 8 7 7 7 6 5 5 4 3 3 4 5 6 6 6 5 5 4 4 4 4 3 4 4 4 4 3 3 3 2 2 2 1 1 1 1 1 1 1 2 2 3 3 3 3 3 2 2 2 2 2 3 4 5 5
7 7 8 7 7 8 8 8 8 7 7 7 7 8 8 8 8 7 7 5 5 4 3 3 4 5 6 6 6 6 5 4 4 4 3 3 3 4 3 3 3 3 3 3 2 2 2 1 1 1 1 1 1 2 2 3 4 4 3 3 3 2 2 2 2 3 4 5 5
9 8 8 8 8 8 8 8 8 8 8 8 9 9 8 8 8 7 6 5 5 5 4 4 4 5 5 6 6 5 5 4 4 3 3 3 3 3 3 3 3 3 3 3 2 2 2 1 1 1 1 1 1 2 2 3 3 3 3 2 3 3 4 3 3 4 4 4 5
10 9 9 8 8 8 8 8 7 7 8 8 9 8 8 8 7 6 6 6 6 6 5 4 5 5 5 6 6 5 5 4 4 4 3 3 3 3 3 3 3 3 3 3 2 2 1 1 1 1 1 1 1 1 2 2 3 3 3 3 3 4 4 4 4 4 4 4 5
10 10 9 8 9 9 8 8 7 7 7 8 8 8 7 7 7 7 7 7 7 7 6 5 5 5 5 5 5 5 5 4 4 4 4 3 3 3 3 3 3 3 3 3 2 2 2 2 2 2 1 1 1 1 1 2 3 3 3 3 4 4 4 4 4 4 4 4 5
11 10 9 9 9 9 8 7 7 7 7 8 8 7 7 6 7 7 7 8 7 6 5 5 4 4 5 5 5 5 5 5 5 5 4 4 3 3 2 2 3 3 3 3 2 2 2 2 2 2 2 2 1 1 2 2 3 3 3 4 4 4 4 5 5 5 5 5 5
11 11 10 10 10 9 8 7 6 6 7 8 7 7 6 6 6 6 6 7 7 6 5 5 4 4 4 5 5 5 5 5 6 5 5 4 3 2 2 2 2 2 3 3 3 2 2 2 2 2 2 2 2 2 2 2 2 3 3 4 4 5 5 5 5 5 5 6 6
11 11 11 10 10 9 8 7 6 6 7 7 7 6 6 6 5 5 6 6 6 6 5 5 4 4 5 5 5 6 6 6 6 6 6 5 3 2 2 2 2 2 2 2 2 2 2 2 2 1 1 2 2 2 2 2 2 3 3 4 4 5 5 5 5 5 6 6 6
12 11 11 11 10 9 8 7 6 6 6 7 6 6 6 6 5 5 6 6 6 5 5 5 5 5 5 5 5 5 5 6 6 6 6 5 4 3 2 2 1 1 2 2 2 2 2 2 1 1 1 1 2 2 2 3 3 3 3 4 4 4 5 5 5 5 6 6 6
12 11 11 11 10 10 9 8 7 6 6 7 7 6 6 6 5 5 6 6 5 5 5 5 5 5 5 5 4 4 4 5 6 6 6 5 4 3 2 1 1 1 1 1 2 2 2 2 1 1 0 1 1 2 2 3 3 4 4 4 4 4 5 5 5 5 5 6 6
12 11 11 11 11 10 10 9 8 8 7 7 7 6 6 6 6 5 5 5 6 6 6 6 5 5 5 5 4 4 4 4 5 6 6 5 4 3 2 1 1 1 0 0 1 1 1 1 1 0 0 1 1 2 2 3 3 4 4 4 4 4 4 5 5 5 5 5 6
12 11 11 10 10 10 10 10 9 9 8 8 7 6 6 6 6 6 6 5 6 6 7 6 6 5 5 5 5 4 4 4 6 6 6 5 4 2 1 0 1 1 1 1 0 0 1 1 0 0 1 1 2 2 2 3 3 4 4 4 4 5 5 5 5 5 5 5 6
12 11 11 10 10 10 10 10 10 9 9 8 8 7 7 7 7 6 6 6 6 6 6 6 6 6 6 5 5 5 4 4 5 6 6 5 4 2 1 1 1 2 2 2 1 1 1 1 1 1 1 2 2 2 3 3 3 4 4 4 4 5 5 5 5 5 5 5 5
11 11 10 10 10 10 10 9 9 9 9 9 9 8 8 7 7 7 7 7 6 6 6 6 6 6 6 6 5 5 4 4 5 6 6 5 4 2 1 1 2 2 2 2 2 2 1 1 1 2 2 2 2 3 3 3 4 4 4 4 4 5 5 5 5 5 5 5 5
10 10 10 10 10 9 9 9 9 9 9 9 9 9 8 8 7 7 7 6 6 6 6 6 6 5 5 5 5 5 4 4 4 5 5 5 4 2 1 2 2 3 3 3 2 2 2 2 2 2 2 3 3 3 3 4 4 5 5 5 5 5 5 5 5 5 5 5 5
10 9 9 9 9 9 9 9 9 9 9 9 9 8 8 8 7 7 7 6 6 6 6 5 5 5 4 4 4 5 4 4 4 5 5 4 4 3 2 2 3 3 3 3 3 3 3 3 3 3 3 3 3 3 4 4 4 5 5 6 6 6 6 6 5 5 5 5 5
10 9 8 7 8 9 9 9 9 9 9 9 9 9 8 8 7 7 7 6 6 6 6 5 4 4 4 4 4 4 4 4 4 4 4 4 3 3 3 3 3 3 3 3 3 3 4 3 3 3 3 3 3 3 4 4 4 5 5 6 6 6 6 6 6 6 6 6 5
10 9 8 8 8 9 9 9 9 9 9 8 8 8 8 8 7 7 7 6 6 6 6 5 5 4 4 4 3 3 3 3 3 3 3 3 3 3 3 3 3 3 2 2 3 4 5 5 4 4 4 4 4 4 4 4 5 5 5 6 6 7 7 7 7 6 6 6 6
9 9 9 9 9 9 9 9 9 8 8 8 7 7 7 7 7 6 6 6 6 6 5 5 4 4 4 3 3 3 3 3 2 2 2 2 2 2 2 2 2 2 2 2 4 5 6 6 6 5 5 4 4 4 4 4 5 5 5 6 6 6 7 7 7 7 7 6 6
9 9 9 9 9 9 9 8 8 8 7 7 7 7 7 6 6 6 6 6 6 5 5 4 4 3 3 3 3 3 3 3 2 2 2 1 1 1 1 2 2 2 2 3 5 6 6 6 6 6 6 5 5 5 5 5 5 5 5 6 6 6 7 7 8 8 8 7 7
10 9 9 9 9 9 8 8 8 7 7 7 6 6 6 6 6 6 6 6 5 5 4 4 3 3 2 3 3 3 3 3 2 2 1 1 1 1 2 2 2 2 3 4 6 7 7 7 7 7 6 6 5 5 5 5 5 5 5 5 5 6 7 7 7 8 8 8 7
10 10 10 10 9 8 8 8 8 7 7 6 6 5 5 5 5 5 6 5 5 5 4 3 2 2 2 2 3 3 3 2 2 1 1 1 1 2 2 3 3 3 3 5 6 7 7 7 7 7 7 7 6 5 5 5 5 5 5 5 5 6 6 7 7 7 8 8 8
10 10 10 10 9 9 8 8 7 7 6 5 5 5 5 5 5 5 5 5 4 4 3 2 2 2 2 3 2 2 2 2 1 1 1 1 2 3 3 3 3 3 4 5 6 7 7 7 7 7 7 8 7 6 5 5 5 5 5 5 6 6 7 7 8 8 8 8 8
9 9 9 9 9 9 8 7 6 6 5 4 4 4 4 4 4 4 4 4 3 3 3 2 2 2 3 2 2 1 1 1 0 0 1 2 3 3 4 4 4 4 5 6 7 7 8 8 8 8 8 8 7 6 5 5 5 5 5 5 6 7 8 8 8 8 8 9 8
8 8 9 9 9 8 7 7 6 5 4 4 4 3 4 4 4 3 3 2 2 3 3 3 2 2 2 2 2 1 1 0 0 1 1 2 3 4 5 5 5 5 5 6 7 8 8 9 9 9 9 9 8 7 6 6 6 6 6 6 7 8 8 7 7 8 9 9 9
8 8 8 9 8 8 7 6 5 4 4 3 3 3 3 3 3 2 2 2 2 2 2 2 2 1 1 1 1 1 1 1 1 1 2 3 4 5 5 6 5 5 6 7 8 9 9 10 10 10 10 10 8 7 7 6 6 5 6 6 7 8 8 9 8 9 9 9 9
8 8 8 8 8 7 6 5 5 4 3 3 3 2 2 2 2 2 2 2 2 2 2 1 1 1 1 1 2 2 2 2 2 2 3 3 4 5 6 5 5 5 6 8 9 10 10 10 10 10 10 10 8 7 7 7 6 6 6 7 8 8 8 9 9 9 9 9 9
8 8 8 7 7 6 6 5 5 4 3 3 3 3 2 2 2 2 2 2 2 2 1 1 1 1 1 1 2 2 3 3 3 3 3 3 4 5 6 6 6 7 8 9 10 10 10 11 11 11 10 10 7 7 7 7 7 7 8 8 9 9 9 9 9 9 9 9 9
7 8 8 7 7 6 6 5 5 4 4 3 3 3 3 2 2 2 2 2 1 1 1 1 0 0 1 2 2 2 3 4 4 4 4 4 5 6 7 7 8 8 9 10 10 10 10 11 11 11 10 9 7 6 6 6 6 7 8 9 9 10 10 10 10 9 9 9 9
7 7 7 7 7 6 6 5 5 4 4 3 3 3 3 2 2 2 1 1 1 1 1 1 1 1 2 3 3 3 4 4 4 5 5 5 5 6 7 8 8 9 9 10 10 10 10 11 11 11 10 8 7 6 6 6 6 7 8 9 9 10 10 9 9 9 9 9 9
6 6 6 7 7 6 5 5 4 4 4 3 3 3 2 2 2 2 2 1 1 1 1 2 2 3 3 3 3 4 4 4 5 5 6 6 6 6 7 8 8 9 9 9 10 10 11 11 11 11 10 8 7 7 7 6 6 7 7 8 8 9 9 8 7 8 9 10 10
6 6 6 6 6 6 5 5 4 4 3 3 3 2 2 2 2 2 2 2 2 2 2 3 3 3 3 3 4 5 5 6 6 6 6 6 6 7 7 8 9 9 9 10 10 11 11 12 12 11 11 9 8 7 6 6 7 7 8 8 8 8 9 8 7 7 8 10 11
5 5 5 5 5 5 5 5 4 3 3 3 3 3 2 2 2 2 2 2 2 2 3 3 4 4 3 4 4 5 6 6 6 6 6 7 7 7 8 8 9 10 10 11 11 11 12 12 12 12 11 9 7 7 6 6 7 8 8 8 8 8 8 7 7 7 8 9 10
4 4 4 5 5 5 5 4 4 3 3 3 2 2 2 2 2 2 2 2 3 3 3 4 4 4 4 4 5 5 6 7 7 6 6 7 7 7 8 8 9 10 10 10 11 11 12 12 12 12 11 9 7 6 6 6 7 8 8 8 8 7 7 7 7 7 8 8 9
Wind_Direction
165 165 166 166 160 156 152 146 145 145 148 152 153 155 156 155 144 138 135 138 134 128 125 122 122 124 131 139 147 149 147 142 138 133 125 115 101 94 87 80 59 28 8 359 340 330 327 324 316 325 348 352 2 18 22 9 344 338 340 344 344 342 341 345 350 350 349 348 346
168 166 163 158 152 147 142 140 141 142 143 144 143 145 147 147 139 137 136 134 127 124 123 126 132 136 139 142 148 148 146 142 138 136 131 119 110 106 103 96 82 63 40 23 7 1 355 345 334 337 347 348 345 5 19 16 333 329 334 342 339 334 331 335 343 340 338 337 340
165 164 161 159 155 151 149 148 149 149 147 141 137 137 139 137 135 133 132 129 126 128 132 140 144 145 144 145 146 147 145 141 142 138 133 123 118 115 113 109 103 93 76 53 36 21 3 346 342 344 350 348 351 358 3 1 335 329 331 340 336 331 327 331 335 332 330 330 336
162 162 162 161 159 157 155 152 152 150 146 139 135 131 129 126 127 128 128 128 131 137 145 151 149 148 147 146 146 146 144 143 143 137 130 124 120 118 118 119 114 107 98 85 67 46 19 342 338 345 348 351 358 3 1 350 336 330 329 334 329 327 327 327 331 330 327 328 332
163 163 161 158 157 153 149 147 148 146 142 139 137 135 133 131 135 136 137 139 142 146 151 152 149 150 151 152 148 145 143 143 145 140 133 127 125 125 125 122 115 111 107 100 87 67 31 334 335 357 358 2 12 9 358 339 326 322 321 322 326 327 327 329 330 329 327 327 331
161 157 152 146 145 142 139 140 143 143 145 148 149 146 145 147 151 151 148 142 140 141 145 151 155 156 156 155 149 145 143 143 145 142 137 133 133 131 128 122 118 116 111 104 97 86 57 332 345 24 28 17 31 21 3 341 326 318 317 317 331 332 331 333 332 329 328 331 332
151 147 144 141 142 142 142 143 146 149 152 155 152 149 147 149 150 147 141 133 133 138 146 160 167 164 159 154 148 144 143 143 143 143 141 138 136 133 129 125 121 114 106 98 93 86 70 12 10 20 26 3 22 29 18 354 336 326 322 329 342 344 340 339 333 328 327 332 335
143 142 142 143 145 147 149 151 154 155 156 155 150 145 143 143 143 139 135 129 131 138 150 170 175 167 156 147 142 140 140 142 142 142 140 137 134 132 129 126 119 111 101 90 80 70 62 53 41 32 23 5 5 18 13 357 342 334 330 335 345 347 342 338 327 323 325 331 335
140 141 142 145 149 152 154 156 157 155 152 147 142 140 139 139 139 137 133 130 131 136 147 170 174 163 151 139 135 135 136 138 138 136 135 133 131 129 127 123 115 109 103 91 79 69 64 74 74 57 39 11 9 10 3 352 343 338 335 336 342 339 334 329 323 323 326 331 335
142 143 145 148 152 154 154 153 152 148 144 140 138 136 136 137 138 136 134 131 133 139 150 167 170 159 145 134 130 130 132 134 132 131 128 125 122 121 118 114 109 104 99 90 82 76 73 82 81 73 62 39 20 7 358 350 344 340 337 337 337 332 329 330 332 331 332 334 334
144 145 147 148 150 151 149 147 145 142 139 135 134 133 134 135 136 136 135 136 138 142 150 164 166 156 141 129 127 128 129 131 129 125 121 114 111 108 107 105 104 101 98 92 87 83 82 84 75 70 63 57 42 18 1 350 342 338 334 332 328 325 327 334 338 338 335 334 332
142 142 144 145 147 147 146 143 141 139 136 133 132 132 133 135 137 138 140 141 138 141 147 160 159 151 138 128 127 127 128 127 125 121 115 108 104 102 102 102 102 101 100 98 95 93 90 85 71 58 50 45 45 27 7 351 341 335 331 328 326 327 330 337 338 337 333 331 329
139 140 142 144 146 146 144 141 139 138 136 134 132 131 132 133 138 140 142 140 137 138 144 154 151 143 134 129 129 129 129 128 124 118 112 106 103 100 99 98 100 101 102 103 102 100 98 90 75 57 42 31 25 17 3 346 338 334 331 330 331 333 334 336 336 334 331 330 328
138 140 143 145 146 145 143 140 139 137 135 132 131 129 130 132 138 141 141 137 136 138 143 149 145 136 130 128 129 131 131 129 124 117 110 105 101 97 93 92 94 98 103 104 106 104 100 92 79 62 39 22 11 1 351 338 333 330 328 329 331 332 332 333 334 333 331 330 327
140 142 145 146 146 144 141 139 138 136 134 131 130 130 131 134 138 139 138 134 136 140 144 146 138 129 124 124 127 131 132 130 124 117 111 105 100 92 86 82 85 93 100 106 109 108 103 95 83 64 39 14 360 349 340 334 328 326 324 324 325 326 327 329 330 330 329 328 324
143 145 147 148 146 144 141 140 138 136 134 132 132 133 134 136 137 137 136 135 138 140 143 140 134 130 126 125 129 132 133 128 121 115 110 105 99 90 78 67 69 78 94 106 111 110 107 105 94 70 31 357 346 340 337 332 327 323 321 320 319 320 321 323 325 325 324 323 321
145 147 149 149 147 144 142 140 138 136 134 133 134 134 135 135 136 136 136 138 139 139 137 136 134 131 130 131 135 137 134 127 118 112 107 103 98 90 74 49 39 45 74 104 110 111 112 114 114 106 8 325 323 325 327 326 323 321 321 319 317 316 316 317 318 318 317 317 315
147 148 149 149 146 143 141 138 136 134 133 132 132 132 132 131 132 133 134 137 137 136 135 135 133 132 133 136 139 139 133 123 115 110 106 104 101 92 77 40 5 344 340 91 113 115 117 117 129 155 241 283 297 304 310 312 312 313 313 313 312 311 311 311 312 311 310 310 310
147 148 147 146 143 140 138 136 134 133 131 131 130 129 129 129 130 132 134 137 137 137 136 135 135 134 135 138 139 137 130 121 115 112 109 107 105 101 88 11 321 307 299 285 219 150 136 133 164 232 270 280 285 290 295 298 299 302 304 304 304 304 305 306 307 306 304 304 303
145 145 144 142 139 137 136 134 133 132 131 130 130 130 131 133 134 135 136 138 139 140 139 138 137 138 139 140 139 137 133 127 121 117 114 112 111 113 114 293 294 291 288 279 262 247 234 246 270 277 280 282 286 289 292 294 295 296 298 297 297 298 299 299 300 300 299 298 297
142 141 139 137 136 135 133 132 132 131 131 131 132 133 135 137 137 137 137 139 141 141 140 139 139 141 143 144 141 140 138 134 126 121 119 118 122 130 170 261 278 281 281 276 273 266 263 264 270 275 278 279 284 291 294 297 297 298 298 296 295 294 294 293 293 293 292 292 292
137 136 135 134 134 133 132 132 132 132 133 134 135 136 138 139 138 138 139 142 142 140 138 136 139 141 143 143 142 142 141 135 127 123 122 125 133 147 187 241 259 266 268 270 270 269 267 264 263 265 269 275 283 289 293 295 298 298 299 298 297 295 293 292 289 287 286 284 284
133 132 131 132 133 133 133 134 135 136 137 138 140 140 140 140 140 142 144 146 143 139 135 135 136 138 139 141 142 143 141 135 129 126 127 132 141 159 192 230 246 254 258 264 268 273 276 276 271 267 268 275 283 288 292 295 298 300 301 302 302 300 298 295 291 288 283 280 278
131 132 133 133 136 137 139 141 142 143 143 144 145 145 144 143 145 147 149 147 142 140 138 137 137 138 140 141 141 138 135 130 130 133 136 141 150 167 195 223 237 248 257 265 280 292 299 304 302 298 294 292 293 294 296 298 298 300 302 304 305 304 302 299 296 291 287 283 280
134 135 137 139 142 145 147 149 149 149 148 148 148 148 147 147 150 150 148 145 142 140 140 139 140 143 144 140 133 127 121 119 124 130 138 144 154 172 198 222 233 243 254 267 286 296 304 312 315 315 314 310 305 301 298 296 297 299 302 305 305 305 303 302 299 297 294 290 285
138 140 143 145 149 151 153 154 152 150 149 150 150 149 149 149 149 148 145 142 140 139 140 140 142 144 143 136 127 120 113 106 104 107 114 124 142 177 208 229 237 245 257 275 291 298 304 310 313 315 314 311 307 303 300 297 300 302 303 303 302 302 302 303 303 302 301 297 293
143 145 147 150 153 155 155 153 150 150 149 150 150 149 148 148 147 145 142 139 138 137 137 137 138 139 136 129 119 111 105 97 87 76 62 48 31 313 270 254 253 257 270 288 298 303 307 311 313 314 312 310 307 304 302 301 302 301 301 300 299 299 301 302 304 304 304 302 299
147 148 151 153 154 154 152 151 150 150 150 150 148 146 145 146 144 142 140 138 138 138 138 135 135 135 133 121 108 100 95 90 83 69 46 17 346 314 293 279 270 271 283 295 301 305 308 311 312 312 312 311 305 300 297 295 296 297 298 298 299 300 301 302 303 303 304 304 302
149 150 152 154 153 152 152 153 152 150 147 145 144 143 144 144 143 142 141 140 141 139 136 132 134 134 124 108 101 99 99 96 85 64 24 347 313 292 281 279 278 281 288 297 301 305 307 309 309 309 309 308 304 299 294 291 293 296 298 299 300 302 302 302 302 302 302 302 302
151 153 154 154 152 152 153 154 149 145 143 142 142 143 144 144 144 143 141 140 136 132 127 127 133 128 118 107 107 106 104 98 90 63 340 309 294 288 284 286 287 288 292 296 301 304 306 307 306 306 306 305 300 295 291 289 290 293 295 295 297 298 299 299 298 298 298 299 300
154 156 155 154 153 152 151 149 143 140 139 140 143 145 145 144 142 139 137 135 131 129 130 138 138 130 123 121 119 112 100 93 102 285 289 293 294 296 296 296 293 291 291 296 301 304 306 307 306 305 305 304 299 293 289 288 288 289 289 291 293 296 296 296 295 295 295 297 298
157 158 157 155 153 151 148 144 141 139 139 143 146 145 142 137 134 132 131 134 141 148 152 154 149 142 135 135 132 127 125 139 269 284 293 297 300 302 302 300 296 293 294 299 302 306 307 308 307 306 305 304 298 292 288 287 286 286 285 287 288 290 291 292 292 292 292 293 293
160 161 160 157 154 150 147 145 144 143 144 148 146 139 132 132 131 135 143 157 165 168 166 160 152 140 121 94 55 23 358 321 301 299 299 302 303 304 302 299 296 295 297 301 303 305 307 307 306 305 305 304 298 292 287 285 284 283 282 283 284 284 284 284 284 285 286 286 286
164 164 163 159 154 150 148 147 146 146 147 147 141 135 134 142 146 152 157 163 169 169 166 156 128 77 34 12 354 342 329 316 308 302 300 300 299 298 297 294 291 292 295 298 301 302 303 304 304 304 304 303 297 291 286 282 280 279 279 279 279 279 278 277 277 277 278 278 278
167 167 165 160 155 150 148 147 147 148 149 149 144 144 148 155 154 150 147 150 158 160 155 134 85 28 359 340 325 311 303 298 295 293 292 291 290 290 289 287 285 287 290 293 296 298 299 300 301 303 303 301 295 288 284 281 278 276 276 277 276 275 274 273 272 272 272 272 271
169 169 166 160 155 152 149 149 150 154 156 157 152 149 150 152 142 133 132 139 150 155 153 136 141 289 284 279 274 273 276 279 281 282 281 279 279 280 281 283 284 286 288 290 292 294 295 296 298 301 302 299 293 287 284 280 277 275 274 274 273 272 271 270 269 268 267 266 266
172 172 168 162 158 155 154 152 156 160 162 159 150 145 142 142 133 131 133 150 170 184 199 213 241 252 260 263 264 266 268 272 274 274 274 271 270 272 275 279 282 284 286 288 289 290 292 294 297 300 301 298 292 288 284 279 275 273 272 272 271 270 269 269 268 267 265 264 263
173 173 169 163 159 157 155 156 160 163 163 153 145 139 138 140 136 140 150 176 196 213 227 236 242 247 252 258 264 266 265 263 262 264 265 265 264 266 271 276 279 282 284 285 287 289 292 294 297 299 299 296 291 287 283 279 275 273 272 272 272 271 270 269 268 267 266 264 263
171 171 169 162 156 153 152 156 160 161 158 150 144 142 142 148 144 148 161 184 209 228 239 246 247 248 250 254 260 261 259 256 253 254 256 259 261 264 268 273 277 279 282 284 286 289 292 294 296 297 297 293 288 284 280 277 275 273 273 273 274 273 272 270 268 267 266 266 265
163 164 163 156 149 147 148 151 152 151 149 146 148 148 150 155 153 158 169 188 210 230 243 249 250 250 249 251 256 259 259 257 252 251 252 256 260 263 266 270 274 277 281 283 286 289 291 292 293 295 294 290 286 282 278 276 274 273 272 273 274 274 274 272 269 268 268 269 267
146 149 150 145 140 139 141 143 141 141 142 147 150 150 151 157 165 175 187 199 211 222 233 244 246 246 246 248 253 257 260 261 258 256 255 257 260 262 264 267 272 276 280 282 285 286 288 289 290 291 290 287 285 282 278 276 274 273 273 273 274 276 277 277 275 272 271 271 270